EW5990 Weather Reports


Display with metric or nautical units.
time (UTC)temp
F
wind
direction
speed
MPH
gust
MPH
rain 1hr
in
rain 24hr
in
rain mn
in
humidity
%
barometer
mb
20260906145545 67 0 0.0 2.0 0.00 0.00 0.00 98 1019.9
20260906145046 67 339 0.0 2.0 0.00 0.00 0.00 98 1019.9
20260906144558 66 355 0.0 3.0 0.00 0.00 0.00 98 1019.9
20260906144044 66 355 0.0 4.0 0.00 0.00 0.00 98 1019.9
20260906143542 65 0 0.0 4.0 0.00 0.00 0.00 98 1019.9
20260906143130 65 355 0.0 4.0 0.00 0.00 0.00 98 1019.7
20260906142544 65 0 0.0 3.0 0.00 0.00 0.00 98 1019.7
20260906142045 65 0 0.0 3.0 0.00 0.00 0.00 98 1019.7
20260906141607 64 346 0.0 3.0 0.00 0.00 0.00 98 1019.8
20260906141045 64 290 0.0 2.0 0.00 0.00 0.00 98 1019.8
20260906140544 64 290 0.0 2.0 0.00 0.00 0.00 98 1019.8
20260906140108 64 245 0.0 2.0 0.00 0.00 0.00 98 1019.9
20260906135546 64 0 1.0 3.0 0.00 0.01 0.00 97 1020.0
20260906135049 64 107 0.0 3.0 0.00 0.01 0.00 98 1020.0
20260906134614 64 360 1.0 3.0 0.00 0.01 0.00 98 1019.9
20260906134046 64 0 0.0 3.0 0.00 0.01 0.00 98 1020.0
20260906133549 63 0 0.0 3.0 0.00 0.01 0.00 98 1019.8
20260906133109 63 355 1.0 3.0 0.00 0.01 0.00 97 1019.7
20260906132547 63 322 1.0 3.0 0.00 0.01 0.00 98 1019.7
20260906132044 62 351 1.0 2.0 0.00 0.01 0.00 98 1019.7
20260906131602 62 351 0.0 2.0 0.00 0.01 0.00 97 1019.6
20260906131046 62 0 0.0 2.0 0.00 0.01 0.00 97 1019.6
20260906130544 62 0 0.0 2.0 0.00 0.01 0.00 97 1019.6
20260906130113 62 0 0.0 3.0 0.00 0.01 0.00 97 1019.7
20260906125546 62 351 1.0 3.0 0.00 0.01 0.00 97 1019.6
20260906125047 62 351 1.0 3.0 0.00 0.01 0.00 97 1019.5
20260906124606 61 350 2.0 3.0 0.00 0.01 0.00 97 1019.6
20260906124045 61 260 0.0 1.0 0.00 0.01 0.00 97 1019.6
20260906123545 61 0 0.0 2.0 0.00 0.01 0.00 97 1019.6
20260906123138 61 0 0.0 2.0 0.00 0.01 0.00 97 1019.5
20260906122545 61 260 1.0 2.0 0.00 0.01 0.00 97 1019.5
20260906122044 61 260 1.0 2.0 0.00 0.01 0.00 97 1019.4
20260906121604 61 260 0.0 2.0 0.00 0.01 0.00 97 1019.3
20260906121045 60 260 0.0 2.0 0.00 0.01 0.00 97 1019.4
20260906120544 60 0 0.0 2.0 0.00 0.01 0.00 97 1019.3
20260906120106 60 260 1.0 2.0 0.00 0.01 0.00 97 1019.3
20260906115546 60 24 1.0 2.0 0.00 0.01 0.00 97 1019.2
20260906115045 60 24 0.0 1.0 0.00 0.01 0.00 97 1019.3
20260906114610 60 0 0.0 2.0 0.00 0.01 0.00 97 1019.4
20260906114045 60 0 0.0 2.0 0.00 0.01 0.00 97 1019.3
20260906113544 60 24 1.0 2.0 0.00 0.01 0.00 97 1019.3
20260906113104 60 24 0.0 2.0 0.00 0.01 0.00 97 1019.2
20260906112545 60 24 1.0 2.0 0.00 0.01 0.00 97 1019.2
20260906112044 60 24 0.0 2.0 0.00 0.01 0.00 97 1019.2
20260906111605 60 24 0.0 1.0 0.00 0.01 0.00 97 1019.2
20260906111046 61 24 0.0 1.0 0.00 0.01 0.00 97 1019.2
20260906110544 61 0 0.0 1.0 0.00 0.01 0.00 96 1018.9
20260906110106 61 0 0.0 2.0 0.00 0.01 0.00 97 1018.7
20260906105545 61 0 0.0 2.0 0.00 0.01 0.00 97 1018.5
20260906105044 61 24 1.0 2.0 0.00 0.01 0.00 97 1018.3
20260906104604 61 0 0.0 1.0 0.00 0.01 0.00 97 1018.3
20260906104044 61 0 0.0 1.0 0.00 0.01 0.00 97 1018.0
20260906103544 61 0 0.0 0.0 0.00 0.01 0.00 97 1018.0
20260906103101 61 0 0.0 1.0 0.00 0.01 0.00 97 1018.1
20260906102545 61 0 0.0 1.0 0.00 0.01 0.00 97 1018.2
20260906102046 61 0 0.0 1.0 0.00 0.01 0.00 97 1018.2
20260906101557 61 24 0.0 2.0 0.00 0.01 0.00 96 1018.3
20260906101046 61 24 0.0 2.0 0.00 0.01 0.00 96 1018.4
20260906100548 62 24 1.0 2.0 0.00 0.01 0.00 96 1018.3
20260906095544 62 0 0.0 1.0 0.00 0.02 0.00 97 1018.0
20260906095044 62 0 0.0 1.0 0.00 0.02 0.00 97 1018.1
20260906094608 62 24 0.0 1.0 0.00 0.02 0.00 97 1018.2
20260906094044 62 0 0.0 0.0 0.00 0.02 0.00 97 1018.3
20260906093544 62 0 0.0 0.0 0.00 0.02 0.00 96 1018.3
20260906093100 62 0 0.0 0.0 0.00 0.02 0.00 96 1018.3
20260906092546 62 0 0.0 0.0 0.00 0.02 0.00 96 1018.1
20260906092046 62 0 0.0 0.0 0.00 0.02 0.00 96 1018.2
20260906091605 62 0 0.0 1.0 0.00 0.02 0.00 96 1018.2
20260906091048 62 0 0.0 1.0 0.00 0.02 0.00 96 1018.2
20260906090545 62 24 0.0 1.0 0.00 0.02 0.00 96 1018.1
20260906090104 62 0 0.0 1.0 0.00 0.02 0.00 96 1018.1
20260906085546 62 0 0.0 1.0 0.00 0.02 0.00 96 1018.1
20260906085048 62 0 0.0 1.0 0.00 0.02 0.00 96 1018.1
20260906084605 62 0 0.0 0.0 0.00 0.02 0.00 96 1018.2
20260906084045 62 0 0.0 0.0 0.00 0.02 0.00 96 1018.1
20260906083547 62 0 0.0 1.0 0.00 0.02 0.00 96 1018.1
20260906083105 62 0 0.0 1.0 0.00 0.02 0.00 96 1018.0
20260906082546 62 0 0.0 2.0 0.00 0.02 0.00 96 1018.1
20260906082046 62 0 0.0 2.0 0.00 0.02 0.00 96 1018.1
20260906081605 62 24 0.0 2.0 0.00 0.02 0.00 96 1018.0
20260906081044 63 0 1.0 2.0 0.00 0.02 0.00 96 1018.1
20260906080547 63 24 0.0 2.0 0.00 0.02 0.00 96 1018.0
20260906080105 63 24 0.0 2.0 0.00 0.02 0.00 96 1018.1
20260906075545 63 78 1.0 2.0 0.00 0.02 0.00 96 1018.0
20260906075046 63 138 0.0 1.0 0.00 0.02 0.00 96 1017.9
20260906074607 63 0 0.0 2.0 0.00 0.02 0.00 96 1018.0
20260906074046 63 0 0.0 2.0 0.00 0.02 0.00 96 1018.0
20260906073546 63 0 0.0 2.0 0.00 0.02 0.00 96 1018.0
20260906073059 64 0 0.0 2.0 0.00 0.02 0.00 96 1018.2
20260906072546 64 138 1.0 2.0 0.00 0.02 0.00 96 1018.1
20260906072046 64 138 1.0 2.0 0.00 0.02 0.00 96 1018.0
20260906071600 64 138 1.0 2.0 0.00 0.02 0.00 96 1018.1
20260906071046 64 138 1.0 2.0 0.00 0.02 0.00 96 1018.2
20260906070546 65 0 0.0 0.0 0.00 0.02 0.00 96 1018.2
20260906070106 65 0 0.0 0.0 0.00 0.02 0.00 96 1018.2
20260906065547 65 0 0.0 0.0 0.00 0.02 0.00 96 1018.2
20260906065049 65 0 0.0 1.0 0.00 0.02 0.00 96 1018.3
20260906064602 65 0 0.0 1.0 0.00 0.02 0.00 96 1018.3
20260906064047 65 0 0.0 0.0 0.00 0.02 0.00 96 1018.3
20260906063545 65 0 0.0 0.0 0.00 0.02 0.00 96 1018.4
20260906063106 65 0 0.0 1.0 0.00 0.02 0.00 96 1018.3
20260906062545 66 0 0.0 1.0 0.00 0.02 0.00 96 1018.3
20260906062045 66 0 0.0 1.0 0.00 0.02 0.00 96 1018.2
20260906061607 66 0 0.0 1.0 0.00 0.02 0.00 96 1018.3
20260906061046 66 0 0.0 1.0 0.00 0.02 0.00 95 1018.4
20260906060545 66 0 0.0 1.0 0.00 0.02 0.00 96 1018.3
20260906060107 66 138 0.0 1.0 0.00 0.02 0.00 96 1018.4
20260906055546 66 0 0.0 1.0 0.00 0.02 0.00 95 1018.3
20260906055046 66 0 0.0 1.0 0.00 0.02 0.00 95 1018.3
20260906054559 66 0 0.0 1.0 0.00 0.02 0.00 95 1018.3
20260906054046 66 0 0.0 0.0 0.00 0.02 0.00 95 1018.2
20260906053546 66 0 0.0 0.0 0.00 0.02 0.00 95 1018.2
20260906053110 66 0 0.0 1.0 0.00 0.02 0.00 95 1018.1
20260906052548 66 0 0.0 1.0 0.00 0.02 0.00 95 1018.2
20260906052045 66 0 0.0 1.0 0.00 0.02 0.00 95 1018.2
20260906051602 66 138 0.0 1.0 0.00 0.02 0.00 95 1018.0
20260906051048 66 0 0.0 1.0 0.00 0.02 0.00 95 1018.0
20260906050548 66 138 0.0 0.0 0.00 0.02 0.00 95 1018.2
20260906050100 66 0 0.0 0.0 0.00 0.02 0.00 95 1018.0
20260906045546 67 0 0.0 0.0 0.00 0.02 0.02 95 1018.1
20260906045043 67 0 0.0 1.0 0.00 0.02 0.02 95 1018.2
20260906044602 67 0 0.0 1.0 0.00 0.02 0.02 95 1018.1
20260906044044 67 0 0.0 2.0 0.00 0.02 0.02 95 1018.1
20260906043543 67 0 0.0 3.0 0.00 0.02 0.02 95 1018.0
20260906043107 67 0 1.0 3.0 0.00 0.02 0.02 95 1018.0
20260906042543 67 138 1.0 3.0 0.00 0.02 0.02 95 1017.8
20260906042044 67 0 0.0 2.0 0.00 0.02 0.02 95 1017.8
20260906041600 67 138 0.0 2.0 0.00 0.02 0.02 95 1017.9
20260906041043 68 294 0.0 2.0 0.00 0.02 0.02 95 1017.8
20260906040548 68 0 0.0 2.0 0.00 0.02 0.02 95 1017.8
20260906040117 68 294 0.0 2.0 0.00 0.02 0.02 95 1017.7
20260906035543 68 0 0.0 4.0 0.00 0.02 0.02 95 1017.7
20260906035044 68 0 0.0 4.0 0.00 0.02 0.02 95 1017.7
20260906034607 68 0 1.0 4.0 0.00 0.02 0.02 95 1017.5
20260906034044 68 0 1.0 2.0 0.00 0.02 0.02 95 1017.3
20260906033547 68 219 0.0 2.0 0.00 0.02 0.02 95 1017.4
20260906033116 68 219 1.0 2.0 0.00 0.02 0.02 95 1017.3
20260906032544 69 219 1.0 2.0 0.00 0.02 0.02 95 1017.2
20260906032044 69 219 0.0 2.0 0.00 0.02 0.02 95 1017.3
20260906031607 68 219 0.0 2.0 0.00 0.02 0.02 95 1017.3
20260906031044 68 0 0.0 2.0 0.00 0.02 0.02 95 1017.2
20260906030544 68 0 0.0 1.0 0.00 0.02 0.02 95 1017.3
20260906030106 68 0 0.0 1.0 0.00 0.02 0.02 95 1017.2
20260906025543 69 219 0.0 1.0 0.00 0.02 0.02 95 1017.1
20260906025046 69 0 0.0 2.0 0.00 0.02 0.02 94 1017.0
20260906024609 69 0 0.0 2.0 0.00 0.02 0.02 94 1017.0
20260906024046 69 0 0.0 2.0 0.00 0.02 0.02 94 1017.0
20260906023547 69 0 0.0 2.0 0.00 0.02 0.02 94 1017.0
20260906023105 69 219 0.0 2.0 0.00 0.02 0.02 94 1016.8
20260906022543 69 0 0.0 1.0 0.00 0.02 0.02 94 1016.8
20260906022047 69 0 0.0 1.0 0.00 0.02 0.02 94 1016.8
20260906021607 69 0 0.0 2.0 0.00 0.02 0.02 94 1016.7
20260906021043 69 0 0.0 2.0 0.00 0.02 0.02 94 1016.6
20260906020546 69 0 0.0 3.0 0.00 0.02 0.02 94 1016.5
20260906020109 70 55 0.0 3.0 0.00 0.02 0.02 94 1016.5
20260906015543 69 0 0.0 3.0 0.00 0.02 0.02 93 1016.6
20260906015044 69 0 0.0 2.0 0.00 0.02 0.02 93 1016.4
20260906014602 70 349 0.0 2.0 0.00 0.02 0.02 93 1016.4
20260906014043 70 0 0.0 2.0 0.00 0.02 0.02 93 1016.2
20260906013547 70 0 0.0 2.0 0.00 0.02 0.02 93 1016.1
20260906013108 70 0 0.0 2.0 0.00 0.02 0.02 93 1016.0
20260906012547 70 190 0.0 2.0 0.00 0.02 0.02 93 1016.0
20260906012043 70 0 0.0 1.0 0.00 0.02 0.02 93 1016.0
20260906011606 70 0 0.0 2.0 0.00 0.02 0.02 93 1015.8
20260906011047 71 190 0.0 3.0 0.00 0.02 0.02 93 1015.7
20260906010543 71 190 0.0 3.0 0.00 0.02 0.02 93 1015.7
20260906010107 71 0 0.0 2.0 0.00 0.02 0.02 93 1015.7
20260906005544 71 122 0.0 2.0 0.00 0.02 0.02 93 1015.8
20260906005045 71 0 0.0 2.0 0.00 0.02 0.02 93 1015.7
20260906004611 71 0 0.0 1.0 0.00 0.02 0.02 93 1015.7
20260906004046 71 0 0.0 2.0 0.00 0.02 0.02 93 1015.8
20260906003544 71 0 0.0 2.0 0.00 0.02 0.02 92 1015.8
20260906003105 71 0 0.0 2.0 0.00 0.02 0.02 92 1015.8
20260906002545 71 0 0.0 2.0 0.00 0.02 0.02 92 1015.9
20260906002044 71 83 0.0 2.0 0.00 0.02 0.02 92 1015.9
20260906001611 71 0 0.0 2.0 0.00 0.02 0.02 91 1016.0
20260906001045 72 13 1.0 2.0 0.00 0.02 0.02 91 1016.0
20260906000543 72 13 0.0 1.0 0.00 0.02 0.02 91 1016.0
20260906000107 72 0 0.0 2.0 0.00 0.02 0.02 91 1016.2
20260905235543 72 13 0.0 2.0 0.00 0.02 0.02 91 1016.2
20260905235046 72 13 1.0 2.0 0.00 0.02 0.02 91 1016.1
20260905234601 72 13 0.0 2.0 0.00 0.02 0.02 91 1016.2
20260905234043 72 13 0.0 1.0 0.00 0.02 0.02 90 1016.0
20260905233545 72 13 0.0 2.0 0.00 0.02 0.02 90 1016.2
20260905233059 73 0 0.0 2.0 0.00 0.02 0.02 89 1015.9
20260905232543 73 13 1.0 2.0 0.00 0.02 0.02 88 1016.0
20260905232044 73 13 1.0 2.0 0.00 0.02 0.02 88 1015.9
20260905231558 73 13 1.0 2.0 0.00 0.02 0.02 87 1016.1
20260905231043 74 13 0.0 3.0 0.00 0.02 0.02 87 1016.0
20260905230543 74 13 1.0 3.0 0.00 0.02 0.02 86 1016.1
20260905230108 74 344 1.0 3.0 0.00 0.02 0.02 86 1016.1
20260905225544 75 30 1.0 3.0 0.00 0.02 0.02 85 1016.1
20260905225044 75 30 1.0 3.0 0.00 0.02 0.02 84 1016.1
20260905224559 76 15 1.0 4.0 0.00 0.02 0.02 83 1016.2
20260905224050 76 15 1.0 5.0 0.00 0.02 0.02 81 1016.3
20260905223548 77 46 2.0 5.0 0.00 0.02 0.02 79 1016.3
20260905223106 78 32 2.0 5.0 0.00 0.02 0.02 78 1016.3
20260905222546 78 5 3.0 9.0 0.00 0.02 0.02 78 1016.2
20260905222047 79 22 3.0 10.0 0.00 0.02 0.02 77 1016.1
20260905221606 79 350 4.0 10.0 0.00 0.02 0.02 75 1016.1
20260905221046 80 341 5.0 10.0 0.00 0.02 0.02 74 1016.0
20260905220545 80 11 3.0 7.0 0.00 0.02 0.02 76 1016.1
20260905220103 79 47 3.0 7.0 0.00 0.02 0.02 74 1016.0
20260905215545 79 31 3.0 8.0 0.00 0.02 0.02 75 1016.0
20260905215046 79 9 3.0 9.0 0.00 0.02 0.02 77 1015.9
20260905214607 79 15 3.0 9.0 0.00 0.02 0.02 75 1016.0
20260905214045 80 26 3.0 9.0 0.00 0.02 0.02 75 1015.9
20260905213546 80 24 3.0 8.0 0.00 0.02 0.02 74 1015.8
20260905213111 80 71 2.0 10.0 0.00 0.02 0.02 75 1015.7
20260905212545 80 53 3.0 10.0 0.00 0.02 0.02 76 1015.8
20260905212044 80 26 5.0 10.0 0.00 0.02 0.02 74 1016.0
20260905211601 80 5 4.0 9.0 0.00 0.02 0.02 76 1016.0
20260905211045 80 11 3.0 7.0 0.00 0.02 0.02 79 1015.9
20260905210547 80 5 2.0 8.0 0.00 0.02 0.02 77 1015.9
20260905210123 81 86 2.0 8.0 0.00 0.02 0.02 75 1015.9
20260905205545 82 65 3.0 8.0 0.00 0.02 0.02 77 1016.0
20260905205046 81 20 2.0 9.0 0.00 0.02 0.02 79 1016.1
20260905204604 80 57 3.0 9.0 0.00 0.02 0.02 79 1016.2
20260905204045 79 34 2.0 9.0 0.00 0.02 0.02 80 1016.2
20260905203546 80 260 0.0 4.0 0.00 0.02 0.02 80 1016.1
20260905203057 80 69 2.0 8.0 0.00 0.02 0.02 80 1016.2
20260905202546 80 360 3.0 8.0 0.00 0.02 0.02 79 1016.2
20260905202046 79 19 2.0 9.0 0.00 0.02 0.02 84 1016.2
20260905201559 79 46 3.0 9.0 0.00 0.02 0.02 84 1016.2
20260905201044 79 355 4.0 9.0 0.00 0.02 0.02 81 1016.2
20260905200544 79 32 2.0 10.0 0.00 0.02 0.02 81 1016.1
20260905200117 79 33 1.0 10.0 0.00 0.02 0.02 82 1016.2
20260905195545 79 5 5.0 12.0 0.00 0.02 0.02 80 1016.1
20260905195045 79 5 7.0 12.0 0.00 0.02 0.02 79 1016.0
20260905194611 79 22 5.0 9.0 0.00 0.02 0.02 80 1015.9
20260905194045 79 5 2.0 8.0 0.00 0.02 0.02 82 1016.0
20260905193545 78 42 2.0 8.0 0.00 0.02 0.02 83 1016.1
20260905193101 79 30 3.0 8.0 0.00 0.02 0.02 82 1016.1
20260905192546 80 15 3.0 9.0 0.00 0.02 0.02 81 1016.1
20260905192049 80 22 3.0 9.0 0.00 0.02 0.02 82 1016.1
20260905191609 80 5 5.0 8.0 0.00 0.02 0.02 81 1016.1
20260905191045 79 5 3.0 8.0 0.00 0.02 0.02 85 1016.2
20260905190547 77 326 2.0 9.0 0.00 0.02 0.02 85 1016.2
20260905190117 77 32 4.0 9.0 0.00 0.02 0.02 86 1016.3
20260905185545 76 40 3.0 8.0 0.00 0.02 0.02 87 1016.3
20260905185045 76 28 3.0 9.0 0.00 0.02 0.02 88 1016.4
20260905184624 76 14 3.0 9.0 0.00 0.02 0.02 88 1016.6
20260905184045 76 360 3.0 8.0 0.00 0.02 0.02 87 1016.6
20260905183545 76 5 2.0 6.0 0.00 0.02 0.02 87 1016.7
20260905183107 76 36 4.0 6.0 0.00 0.02 0.02 86 1016.6
20260905182545 76 345 1.0 3.0 0.00 0.02 0.02 88 1016.6
20260905182046 76 42 1.0 5.0 0.00 0.02 0.02 89 1016.7
20260905181602 75 0 2.0 5.0 0.00 0.02 0.02 90 1016.7
20260905181046 75 350 1.0 4.0 0.00 0.02 0.02 91 1016.7
20260905180545 74 0 1.0 4.0 0.00 0.02 0.02 92 1016.7
20260905180105 74 331 1.0 4.0 0.00 0.02 0.02 93 1016.8
20260905175545 73 13 1.0 6.0 0.00 0.02 0.02 94 1016.8
20260905175045 73 9 2.0 6.0 0.00 0.02 0.02 95 1016.8
20260905174601 72 19 1.0 5.0 0.00 0.02 0.02 96 1016.9
20260905174045 72 19 2.0 5.0 0.00 0.02 0.02 97 1016.9
20260905173550 72 355 2.0 5.0 0.00 0.02 0.02 97 1016.9
20260905173116 71 15 1.0 4.0 0.00 0.02 0.02 97 1017.0
20260905172546 71 23 2.0 9.0 0.00 0.02 0.02 97 1017.0
20260905172049 71 34 2.0 9.0 0.00 0.02 0.02 97 1016.9
20260905171625 71 5 2.0 9.0 0.00 0.02 0.02 97 1016.8
20260905171048 71 36 3.0 9.0 0.00 0.02 0.02 97 1016.9
20260905170545 71 26 2.0 5.0 0.00 0.02 0.02 98 1016.9
20260905170113 71 28 2.0 5.0 0.00 0.02 0.02 98 1016.9
20260905165544 71 30 2.0 9.0 0.00 0.02 0.02 98 1017.1
20260905165046 71 44 2.0 9.0 0.00 0.02 0.02 98 1017.1
20260905164603 71 18 2.0 9.0 0.00 0.02 0.02 98 1017.1
20260905164045 71 44 1.0 4.0 0.00 0.02 0.02 98 1017.0
20260905163546 71 34 2.0 4.0 0.00 0.02 0.02 98 1017.1
20260905163114 71 41 2.0 7.0 0.00 0.02 0.02 98 1017.1
20260905162544 71 43 3.0 7.0 0.00 0.02 0.02 98 1017.1
20260905162046 71 21 1.0 4.0 0.00 0.02 0.02 98 1017.1
20260905161606 71 55 1.0 5.0 0.00 0.02 0.02 98 1017.1
20260905161045 71 32 2.0 5.0 0.00 0.02 0.02 98 1017.0
20260905160547 71 12 2.0 5.0 0.00 0.02 0.02 98 1016.9
20260905160107 71 41 1.0 3.0 0.00 0.02 0.02 98 1016.8
20260905155544 71 50 1.0 3.0 0.00 0.25 0.02 98 1016.7
20260905155046 72 30 0.0 6.0 0.00 0.25 0.02 98 1016.7
20260905154618 71 30 1.0 6.0 0.00 0.25 0.02 98 1016.7
20260905154047 72 360 1.0 4.0 0.00 0.25 0.02 98 1016.6
20260905153547 72 46 2.0 4.0 0.00 0.25 0.02 98 1016.7
20260905153114 72 355 1.0 4.0 0.00 0.25 0.02 98 1016.7
20260905152547 72 42 1.0 3.0 0.00 0.25 0.02 98 1016.6
20260905152048 72 333 1.0 3.0 0.00 0.25 0.02 98 1016.5
20260905151615 72 0 1.0 9.0 0.00 0.25 0.02 98 1016.4
20260905151043 72 51 2.0 9.0 0.00 0.25 0.02 98 1016.4
20260905150544 71 355 1.0 5.0 0.00 0.25 0.02 98 1016.3
20260905150101 72 5 1.0 5.0 0.00 0.25 0.02 98 1016.3